Regional Weather Roundup
Issued by NWS

Home | Current Version | Previous Version | Graphics & Text | Print | Product List | Glossary Off
Versions: 1 2 3 4 5 6 7 8 9 10 11 12 13 14 15 16 17 18 19 20 21 22 23 24 25 26 27 28 29 30 31 32 33 34 35 36 37 38 39 40 41 42 43 44 45 46 47 48 49 50

000
ASUS43 KMKX 172211
RWRWI

WISCONSIN REGIONAL WEATHER ROUNDUP
NATIONAL WEATHER SERVICE MILWAUKEE/SULLIVAN WI
500 PM CDT THU APR 17 2014

NOTE: "FAIR" INDICATES FEW OR NO CLOUDS BELOW 12,000 FEET WITH NO
SIGNIFICANT WEATHER AND/OR OBSTRUCTIONS TO VISIBILITY.

WIZ001-002-006>008-014>016-023>028-172300-
NORTHWEST WISCONSIN

CITY           SKY/WX    TMP DP  RH WIND       PRES   REMARKS
SUPERIOR ARPT  CLOUDY    38  24  57 NW9       30.27R WCI  32
ASHLAND        CLOUDY    37  26  64 NW8       30.26R WCI  31
HAYWARD        CLOUDY    35  26  69 VRB5      30.26R WCI  31
SIREN          PTSUNNY   39  24  55 NW8       30.27S WCI  33
RICE LAKE      CLOUDY    36  27  69 N7        30.28S WCI  31
LADYSMITH      CLOUDY    35  28  77 NW8       30.27R WCI  28
EAU CLAIRE     CLOUDY    39  29  67 NW8       30.27R WCI  33
MENOMONIE      CLOUDY    38  29  67 NW7       30.28R WCI  33
NEW RICHMOND   PTSUNNY   38  26  61 NW6       30.29R WCI  33
OSCEOLA        MOSUNNY   39  25  57 W6        30.31S WCI  35
$$

WIZ003>005-009-010-017-018-172300-
NORTH CENTRAL WISCONSIN

CITY           SKY/WX    TMP DP  RH WIND       PRES   REMARKS
WOODRUFF       CLOUDY    37  32  82 NW6       30.21R WCI  32
RHINELANDER    CLOUDY    35  30  82 W10       30.20R WCI  27
EAGLE RIVER    CLOUDY    35  31  88 W7        30.18R WCI  29
LAND O LAKES   CLOUDY    34  32  92 NW6       30.18R WCI  29
PHILLIPS       CLOUDY    33  29  86 NW6       30.23R WCI  28
TOMAHAWK       CLOUDY    35  31  85 CALM      30.21R
MEDFORD        CLOUDY    35  31  85 W8        30.22R WCI  28
MERRILL        CLOUDY    37  32  81 CALM      30.22R
$$

WIZ029-030-035-036-043>047-172300-
CENTRAL WISCONSIN

CITY           SKY/WX    TMP DP  RH WIND       PRES   REMARKS
WAUSAU         CLOUDY    39  32  76 W13       30.20R WCI  31
MOSINEE        CLOUDY    37  34  87 W13       30.23R WCI  29
MARSHFIELD     CLOUDY    38  32  79 NW12      30.23R WCI  30
STEVENS POINT  CLOUDY    38  32  78 W9        30.23R WCI  32
WAUPACA        PTSUNNY   50  34  53 W9        30.21R
WAUTOMA        CLOUDY    48  36  63 NW10      30.22R
WISC RAPIDS    CLOUDY    41  33  73 W9        30.24R
CAMP DOUGLAS   CLOUDY    43  34  71 NW9       30.24R
$$

WIZ011>013-019>022-031-037>040-048>050-172300-
NORTHEAST WISCONSIN

CITY           SKY/WX    TMP DP  RH WIND       PRES   REMARKS
ANTIGO         CLOUDY    37  32  82 NW7       30.19R WCI  32
STURGEON BAY   CLOUDY    45  34  65 NW8       30.21R
GREEN BAY      CLOUDY    51  39  63 NW7       30.19R
MANITOWOC      CLOUDY    52  40  63 SW7       30.19R
APPLETON       PTSUNNY   52  36  54 NW9       30.18R
CLINTONVILLE   CLOUDY    46  36  66 NW7       30.19R
OSHKOSH        PTSUNNY   53  37  54 NW9       30.18R
$$

WIZ032>034-041-042-053>061-172300-
SOUTHWEST WISCONSIN

CITY           SKY/WX    TMP DP  RH WIND       PRES   REMARKS
LA CROSSE      CLOUDY    40  30  67 NW13      30.28R WCI  32
SPARTA         CLOUDY    42  32  68 NW9       30.27R
VIROQUA        CLOUDY    42  33  70 NW10      30.24R
BOSCOBEL       SUNNY     51  33  50 NW8       30.23R
PRAIRIE DU CHI MOSUNNY   49  33  54 NW7       30.24S
PLATTEVILLE    FAIR      52  35  53 W9        30.22R
$$

WIZ056-057-062-063-064-067-068-172300-
SOUTH CENTRAL WISCONSIN

CITY           SKY/WX    TMP DP  RH WIND       PRES   REMARKS
BARABOO/DELLS  PTSUNNY   48  34  58 NW9       30.21R
LONE ROCK      MOSUNNY   54  36  50 W7        30.20R
WATERTOWN      PTSUNNY   54  38  54 W6        30.19R
MADISON        PTSUNNY   54  36  50 NW8       30.20R
MIDDLETON      FAIR      56  34  44 NW8       30.20S
MONROE         SUNNY     56  36  47 W5        30.19S
JANESVILLE     MOSUNNY   57  36  44 W9        30.19S
$$

WIZ051-052-058>065-066-070>072-172300-
SOUTHEAST WISCONSIN

CITY           SKY/WX    TMP DP  RH WIND       PRES   REMARKS
MILWAUKEE      PTSUNNY   55  37  50 W5        30.21R
WAUKESHA       NOT AVBL
MILWAUKEE/TIMM MOSUNNY   54  36  50 W9        30.21S
RACINE         MOSUNNY   56  39  53 W13       30.21R
BURLINGTON     MOSUNNY   54  37  54 SW9       30.20S
KENOSHA        MOSUNNY   56  39  53 W10       30.20R
FOND DU LAC    CLOUDY    54  39  57 SW7       30.18R
SHEBOYGAN      PTSUNNY   53  39  59 W7        30.18S
WEST BEND      PTSUNNY   52  36  54 W6        30.19S
JUNEAU         PTSUNNY   53  32  45 W8        30.20R
$$

LSZ147-162-172300-
LAKE SUPERIOR

STATION/POSITION TIME  TEMP    WIND        PRES    WAVE
                       AIR SEA DIR/SP/G            HT/PER
                 (UTC) (F)     (DEG/KT/KT) (MB)    (FT/S)
DEVILS ISLAND    2200   33     340/  6/  7 1025.5R
PORT WING        2100   35     270/  7/  8 1024.0
SAXON HARBOR     2100          300/ 10/ 13 1024.0R
$$

LMZ867-665-643>646-172300-
LAKE MICHIGAN

STATION/POSITION TIME  TEMP    WIND        PRES    WAVE
                       AIR SEA DIR/SP/G            HT/PER
                 (UTC) (F)     (DEG/KT/KT) (MB)    (FT/S)
NORTHPORT PIER   2100   39     320/  6/  9 1022.0R
SISTER BAY       2123   41     360/  6/  7   N/A
KEWAUNEE LAKESHO 2100   38     170/ 10/ 11 1022.2R
SHEBOYGAN LAKESH 2200   50     170/ 11/ 12 1022.7R
PORT WASHINGTON  2140   54     240/  7/ 12 1023.0R
MILWAUKEE LAKESH 2100   52     290/ 10/ 14   N/A
KENOSHA   LAKESH 2200   56     300/  8/ 13   N/A
$$

TC  - TEMPERATURE IN CELSIUS
VSB - VISIBILITY IN STATUTE MILES
WCI - WIND CHILL INDEX
HX  - HEAT INDEX




USA.gov is the U.S. government's official web portal to all federal, state and local government web resources and services.